Regional Weather Roundup
Issued by NWS

Home | Current Version | Previous Version | Graphics & Text | Print | Product List | Glossary On
Versions: 1 2 3 4 5 6 7 8 9 10 11 12 13 14 15 16 17 18 19 20 21 22 23 24 25 26 27 28 29 30 31 32 33 34 35 36 37 38 39 40 41 42 43 44 45 46 47 48 49 50
000
ASUS43 KDTX 261910
RWRMI
MICHIGAN HOURLY REGIONAL WEATHER ROUNDUP
NATIONAL WEATHER SERVICE DETROIT/PONTIAC MI
300 PM EDT FRI AUG 26 2016

NOTE: "FAIR" INDICATES FEW OR NO CLOUDS BELOW 12,000 FEET WITH NO
SIGNIFICANT WEATHER AND/OR OBSTRUCTION TO VISIBILITY.

MIZ047>049-052>055-059>063-066>070-074>076-081>083-262000-
SOUTHEAST LOWER MICHIGAN

CITY           SKY/WX    TMP DP  RH WIND       PRES   REMARKS
ADRIAN         SUNNY     83  63  50 SW9       30.15S
ALMA           MOSUNNY   80  62  54 W7        30.14S
ANN ARBOR      SUNNY     83  62  49 S6        30.14F
BAD AXE        SUNNY     78  55  46 W9        30.13S
CARO           SUNNY     79  64  59 W6        30.12F
DETROIT CITY   SUNNY     83  59  44 VRB3      30.12F
DETROIT        MOSUNNY   84  61  45 W9        30.14S
FLINT          MOSUNNY   83  63  50 W10       30.14F
GROSSE ILE     SUNNY     80  66  62 S9        30.13S
HILLSDALE      SUNNY     82  63  53 W5        30.16S
HOWELL         MOSUNNY   81  60  48 W3        30.15S

CITY           SKY/WX    TMP DP  RH WIND       PRES   REMARKS
JACKSON        SUNNY     80  62  54 VRB5      30.15F
LAMBERTVILLE   SUNNY     85  62  46 SW5       30.15S
LANSING        SUNNY     80  58  46 W9        30.15S
LAPEER         FAIR      81  59  47 W8        30.14S
MASON          MOSUNNY   81  62  53 W8        30.15F
MONROE         SUNNY     84  67  55 W12G18    30.13F
MT. CLEMENS    MOSUNNY   84  60  44 VRB5      30.11F
PONTIAC        PTSUNNY   82  62  50 VRB3      30.13F
PORT HURON     SUNNY     81  63  54 NW7       30.12F
TRI CITIES     SUNNY     79  62  56 W12       30.13F
MIDLAND        FAIR      79  62  56 SW8       30.11F
TROY           SUNNY     85  56  37 SW8       30.14F
SAGINAW HB     SUNNY     79  61  53 SW12      30.12S
$$
MIZ043>046-050>051-056>058-064>065-071>073-077>080-262000-
SOUTHWEST LOWER MICHIGAN

CITY           SKY/WX    TMP DP  RH WIND       PRES   REMARKS
BATTLE CREEK   SUNNY     78  63  59 W8        30.16F
BENTON HARBOR  MOSUNNY   78  63  59 NW6       30.15S
BIG RAPIDS     MOSUNNY   77  54  44 W9        30.14S
COLDWATER      SUNNY     81  62  51 NW5       30.16S
FREMONT        FAIR      75  52  43 W9        30.15S
HOLLAND        SUNNY     77  62  59 W8        30.16F
GRAND RAPIDS   PTSUNNY   81  59  47 W12       30.14F
IONIA          FAIR      81  57  44 W8        30.13F
KALAMAZOO      SUNNY     81  60  48 VRB3      30.15F
LUDINGTON      CLOUDY    70  58  64 NW8       30.15F
MARSHALL       SUNNY     81  63  54 W6        30.15S
MOUNT PLEASANT SUNNY     80  59  48 W10       30.12F
MUSKEGON       PTSUNNY   74  57  55 W8        30.16S
SOUTH HAVEN    SUNNY     79  64  60 NW6       30.16S
$$
MIZ016>042-262000-
NORTHERN LOWER MICHIGAN

CITY           SKY/WX    TMP DP  RH WIND       PRES   REMARKS
ALPENA         PTSUNNY   80  53  39 NW7       30.11R
BEAVER ISLAND  CLOUDY    71  61  70 SW9       30.13S
BELLAIRE       PTSUNNY   74  55  51 W7        30.14R
CADILLAC       MOSUNNY   76  55  47 W9        30.14S
CHARLEVOIX     CLOUDY    72  60  67 W15       30.17R
FRANKFORT      PTSUNNY   70  58  64 W8        30.15S
GAYLORD        MOSUNNY   73  52  47 W9        30.14R
GRAYLING       PTSUNNY   77  56  48 W8        30.14S
HARBOR SPRINGS PTSUNNY   72  60  67 W7G17     30.13S
HOUGHTON LAKE  SUNNY     77  56  48 W10       30.14S
MANISTEE       MOSUNNY   73  59  61 SW8       30.15S
OSCODA         PTSUNNY   80  57  46 W7        30.09S
PELLSTON       PTSUNNY   72  57  59 W12       30.12R
ROGERS CITY    CLOUDY    69  61  76 N5        30.12R
TRAVERSE CITY  PTSUNNY   76  53  44 W14       30.13R
$$
MIZ007>008-015-262000-
EASTERN UPPER MICHIGAN

CITY           SKY/WX    TMP DP  RH WIND       PRES   REMARKS
KINROSS        CLOUDY    69  59  70 NW7       30.11R
MACKINAC ISLAN MOSUNNY   69  60  71 W10G20    30.11R
NEWBERRY       CLOUDY    69  56  63 N6        30.11S
S. S. MARIE    MOSUNNY   72  58  61 NW12      30.09S
MUNISING         N/A     63  60  90 N8        30.13R
$$
MIZ004>006-011>014-085-262000-
CENTRAL UPPER MICHIGAN

CITY           SKY/WX    TMP DP  RH WIND       PRES   REMARKS
MANISTIQUE     CLOUDY    70  61  74 S9        30.11S
ESCANABA       CLOUDY    70  58  65 VRB3      30.11S
MENOMINEE      PTSUNNY  N/A N/A N/A W6          N/A
SAWYER-GWINN   CLOUDY    63  57  82 NE5       30.14F
$$
MIZ001>003-009>011-084-262000-
WESTERN UPPER MICHIGAN

CITY           SKY/WX    TMP DP  RH WIND       PRES   REMARKS
IRON MOUNTAIN  PTSUNNY   71  51  49 NW6       30.13S
HOUGHTON       MOSUNNY   65  51  60 NW12      30.14R
COPPER HARBOR    N/A     62  56  80 NE9       30.13S
IRONWOOD       CLOUDY    66  46  48 NW10      30.17S
$$

ABBREVIATIONS USED IN REMARKS
   TC - TEMPERATURE IN CELSIUS
  WCI - WIND CHILL INDEX
   HX - HEAT INDEX
  VSB - VISIBILITY





USA.gov is the U.S. government's official web portal to all federal, state and local government web resources and services.